www.pogodaiklimat.ru

Погода и климат >> Архив погоды >> Канада >> Schuler Radar


ПОГОДА в Schuler Radar

  • Прогноз погоды в Schuler Radar
  • Монитор погоды в Schuler Radar
  • Климат города

АРХИВ ПОГОДЫ в Schuler Radar

Время (UTC), дата Ветер
(напр.,м/с)
 
Видим.   Явления Облачность Т
(С)
Тd
(С)
f
(%)
Тe
(С)
Тes
(С)
Комфортность P
(гПа)
Po
(гПа)
Тmin
(С)
Tmax
(С)
R
(мм)
R24
(мм)
S
(см)
09 12.11 З 6 н/о н/о -4.4 -10.7 61 -12 -12 1020.9 1013.6
12 12.11 З 5 н/о н/о -4.5 -11.0 60 -11 -11 1022.4 1015.1 -5.1 +1.9
15 12.11 З 5 н/о н/о -1.1 -10.5 49 -7 -7 1023.1 1015.8
18 12.11 З 5 н/о н/о +0.8 -10.6 42 -4 -4 1023.2 1015.9 -5.1 +1.1
21 12.11 З 4 н/о н/о -0.8 -10.6 47 -5 -5 1025.3 1018.0
00 13.11 ЮЗ 2 н/о н/о -3.0 -10.5 56 -7 -7 1028.3 1020.9 -5.1 +1.2
03 13.11 ЮЗ 2 н/о н/о -3.8 -11.2 56 -7 -7 1029.3 1021.9
06 13.11 ЮЗ 2 н/о н/о -4.1 -9.8 64 -8 -8 1029.5 1022.2 -5.8 +1.2
09 13.11 С 1 н/о н/о -5.1 -8.6 76 -6 -6 1028.8 1021.4
12 13.11 ЮВ 1 н/о н/о -3.6 -7.4 75 -4 -4 1028.0 1020.6 -5.8 +1.2
15 13.11 С 2 н/о н/о -0.9 -3.3 84 -4 -4 1025.7 1018.4
18 13.11 В 3 н/о {осадки} н/о +1.3 +0.5 94 -3 -3 1020.4 1013.1 -5.8 +1.7 2
21 13.11 В 5 н/о н/о +1.8 +0.5 91 -4 -4 1012.0 1004.8 3
00 14.11 СВ 4 н/о {осадки} н/о +3.1 +2.0 92 -1 -1 1001.7 994.6 -5.4 +3.1 8
03 14.11 СВ 2 н/о {осадки} н/о +1.4 +0.9 96 -2 -2 995.0 987.9 0.9
06 14.11 З 6 н/о {осадки} н/о +1.4 +0.3 92 -5 -5 998.5 991.4 -5.4 +3.1 1
09 14.11 З 10 н/о н/о -1.6 -7.2 66 -10 -10 1001.7 994.6
12 14.11 З 9 н/о н/о -6.7 -12.4 64 -16 -16 1006.8 999.6 -6.7 +3.1
15 14.11 З 10 н/о н/о -8.2 -15.5 56 -18 -18 1009.7 1002.5 0.2
18 14.11 З 10 н/о н/о -8.4 -17.1 49 -19 -19 1011.1 1003.9 -8.6 +1.4 0.2
21 14.11 З 9 н/о н/о -8.6 -17.0 51 -18 -18 1014.7 1007.4
00 15.11 З 7 н/о н/о -8.9 -15.8 57 -17 -17 1019.0 1011.6 -8.9 -6.7
03 15.11 З 6 н/о н/о -9.0 -14.8 63 -17 -17 1022.0 1014.6
06 15.11 З 7 н/о н/о -8.9 -14.1 66 -18 -18 1025.7 1018.3 -9.2 +1.4
09 15.11 З 6 н/о н/о -9.2 -14.2 67 -17 -17 1029.2 1021.7
12 15.11 ЮЗ 5 н/о н/о -9.9 -14.1 71 -17 -17 1032.2 1024.7 -10.1 +1.4 1
15 15.11 З 3 н/о н/о -4.7 -14.2 47 -9 -9 1031.6 1024.2
18 15.11 З 4 н/о н/о -2.3 -13.9 41 -7 -7 1030.7 1023.3 -10.1 -2.1
21 15.11 З 2 н/о н/о -4.4 -11.8 56 -8 -8 1031.8 1024.4
00 16.11 З 2 н/о н/о -6.5 -11.3 69 -10 -10 1031.2 1023.7 -10.1 -2.1
03 16.11 СЗ 1 н/о н/о -7.7 -10.3 82 -8 -8 1030.2 1022.8
06 16.11 СВ 1 н/о н/о -7.2 -9.5 84 -10 -10 1027.8 1020.4 -10.1 -2.1
09 16.11 СВ 4 н/о н/о -6.2 -9.9 75 -12 -12 1023.1 1015.7
12 16.11 В 3 н/о н/о -3.2 -7.5 72 -8 -8 1020.1 1012.8 -7.8 -2.1 <0.5
15 16.11 СВ 4 н/о {осадки} н/о -3.4 -5.2 87 -10 -10 1012.4 1005.1 5
18 16.11 СВ 6 н/о {осадки} н/о -3.2 -4.6 90 -11 -11 1002.0 994.8 -7.8 -2.4 7
21 16.11 С 7 н/о {осадки} н/о -1.9 -2.6 95 -10 -10 997.2 990.0 4
00 17.11 С 5 н/о {осадки} н/о -0.7 -1.5 94 -7 -7 994.7 987.6 -7.3 -0.7 5
03 17.11 СЗ 3 н/о н/о -0.9 -1.7 94 -6 -6 995.5 988.4 0.5
06 17.11 З 4 н/о {осадки} н/о -1.8 -2.6 94 -8 -8 998.6 991.5 -7.3 -0.4 1
09 17.11 З 4 н/о н/о -2.1 -3.2 92 -8 -8 1003.0 995.8 0.4
12 17.11 З 5 н/о н/о -3.6 -5.3 88 -10 -10 1007.1 999.9 -3.6 -0.4 0.4 10
15 17.11 З 4 н/о н/о -3.1 -6.8 76 -9 -9 1010.2 1003.0
18 17.11 З 5 н/о н/о -2.0 -5.6 76 -8 -8 1011.5 1004.3 -4.2 -1.5
21 17.11 ЮЗ 2 н/о н/о -1.5 -3.9 84 -5 -5 1013.4 1006.2
00 18.11 ЮЗ 3 н/о н/о -0.3 -3.3 80 -5 -5 1015.5 1008.2 -4.2 -0.3
03 18.11 ЮЗ 3 н/о {осадки} н/о -2.9 -5.1 85 -8 -8 1017.4 1010.1 0.2
06 18.11 З 3 н/о {осадки} н/о -2.9 -5.3 83 -8 -8 1019.1 1011.8 -4.4 -0.2 0.2
09 18.11 З 2 н/о н/о -5.1 -7.9 81 -9 -9 1021.7 1014.4
12 18.11 штиль 0 н/о н/о -6.7 -9.5 80 -7 -7 1025.1 1017.8 -7.9 -0.2 0.2 9
15 18.11 З 2 н/о н/о -3.2 -10.1 59 -7 -7 1026.9 1019.5
18 18.11 З 3 н/о н/о -2.6 -9.2 60 -7 -7 1025.8 1018.5 -7.9 -1.9
21 18.11 З 2 н/о н/о -4.4 -9.1 70 -8 -8 1026.2 1018.8
00 19.11 С 2 н/о н/о -8.8 -10.0 91 -13 -13 1026.7 1019.3 -8.8 -1.9
03 19.11 В 1 н/о н/о -11.9 -12.8 93 -12 -12 1026.5 1019.1

 

Местоположение метеостанции Schuler Radar (Канада): широта 50.31 долгота -110.20 высота над уровнем моря 863 м.

В архиве по умолчанию представлена погода в Schuler Radar за последнюю неделю. Архивные данные за месяц целиком и за предыдущие месяцы, начиная с января 2011 года, Вы можете получить, выбрав интересующий диапазон дат из раскрывающегося списка и нажав кнопку "Ввод!".


*Определитесь, кто Вы:
робот инопланетянин человек

Внимание! Время в таблицах - всемирное. Для получения местного времени необходимо прибавить поправку, которая в Schuler Radar равна -7 ч.

Смотрите также архив погоды в соседних городах и на ближайших метеорологических станциях:

Погода в Schuler Agdm (Канада) (14 км)
Погода в Irvine Agcm (Канада) (37 км)
Погода в Medicine Hat Rcs (Канада) (48 км)
Погода в Medicine Hat Arpt (Канада) (48 км)
Погода в Seven Persons Agdm (Канада) (66 км)
Погода в Maple Creek (Канада) (73 км)
Погода в Atlee (Канада) (79 км)
Погода в Leader Airport (Канада) (82 км)
Погода в Acadia Valley (Канада) (83 км)
Погода в Cypress Hills Park (Канада) (89 км)

Пояснения к столбцам:

Ветер - указаны скорость ветра в м/с - средняя за 10 мин, порывы в срок и между сроками (в фигурных скобках) и направление, откуда дует ветер: С - северный, СВ - северо-восточный, В - восточный, ЮВ - юго-восточный, Ю - южный, ЮЗ - юго-западный, З - западный, СЗ - северо-западный.
Видимость - горизонтальная дальность видимости в метрах или километрах. При видимости от 1 до 10 км при отсутствии осадков обычно наблюдается дымка, при ухудшении видимости до 1 км и менее - туман. В сухую погоду видимость может ухудшаться дымом, пылью или мглою.
Явления - указаны атмосферные явления, наблюдавшиеся в срок или в последний час перед сроком; фигурными скобками обозначены явления, наблюдавшиеся между сроками (за 1-3 часа до срока); квадратными скобками обозначены град или гололедные отложения с указанием их диаметра в мм.
Облачность - указаны через наклонную черту общая и нижняя облачность в баллах и высота нижней границы облаков в метрах; квадратными скобками обозначены формы облаков: Ci - перистые, Cs - перисто-слоистые, Cc - перисто-кучевые, Ac - высококучевые, As - высокослоистые, Sc - слоисто-кучевые, Ns - слоисто-дождевые, Cu - кучевые, Cb - кучево-дождевые. Подробнее классификацию облаков см. в Атласе облаков (PDF).
T - Температура воздуха - температура, измеренная на высоте 2 м над землей.
Td - Температура точки росы - температура, при понижении до которой содержащийся в воздухе водяной пар достигнет насыщения.
f - Относительная влажность воздуха - влажноcть воздуха, измеренная на высоте 2 м над землей.
Te - Эффективная температура - температура, которую ощущает одетый по сезону человек в тени. Характеристика душности погоды. При расчете учитывается влияние влажности воздуха и скорости ветра на теплоощущения человека.
Tes - Эффективная температура на солнце - температура, которую ощущает человек, с поправкой на солнечный нагрев. Характеристика знойности погоды. Зависит от высоты солнца над горизонтом, облачности и скорости ветра. Ночью, в пасмурную погоду, а также при ветре 12 м/с и более поправка равна нулю.
P - Атмосферное давление - приведенное к уровню моря атмосферное давление.
Po - Атмосферное давление - измеренное на уровне метеостанции атмосферное давление.
Tmin - Минимальная температура - минимум температуры воздуха на высоте 2 м над землей.
Tmax - Максимальная температура - максимум температуры воздуха на высоте 2 м над землей.
R - Количество осадков - Количество выпавших осадков за период времени, мм. При наведении курсора мыши на число - период времени, за который выпало указанное количество осадков.
R24 - Количество осадков - Количество выпавших осадков за 24 часа, мм.
S - Снежный покров - Высота снежного покрова, см. При наведении курсора мыши на число - состояние снежного покрова и степень покрытия местности в баллах.